Home   Weather   Oakland   Past weeks

Flag for USA Past Weather in Oakland, California, USA — Yesterday and Last 2 Weeks

Now
54 °F

Passing clouds.


Feels Like: 51 °F
Forecast: 49 / 54 °F
Wind: 12 mph from South

Location: Metro Oakland International Airport

Current Time: Jan 20, 2017 at 12:15:29 pm

Latest Report: Jan 20, 2017 at 10:53 am


Visibility: 10 mi

Pressure: 29.37 "Hg

Humidity: 83%

Dew Point: 49 °F

Location of OaklandLocation

Past Weather in Oakland — Graph

°F

Oakland Temperature Yesterday

Maximum temperature yesterday: 57 °F (at 1:53 pm)
Minimum temperature yesterday: 52 °F (at 4:53 am)
Average temperature yesterday: 54 °F

High & Low Weather Summary for the Past Weeks

 TemperatureHumidityPressure
High61 °F (Jan 7, 1:53 pm)100% (Jan 7, 11:53 pm)30.25 "Hg (Jan 7, 11:53 pm)
Low35 °F (Jan 6, 2:53 am)39% (Jan 6, 11:53 am)29.34 "Hg (Jan 20, 6:53 am)
Average51 °F83%29.98 "Hg
* Reported Jan 5 10:53 am — Jan 20 10:53 am, Oakland, Weather by CustomWeather, © 2017

Note: Actual official high and low records may vary slightly from our data, if they occured in-between our weather recording intervals... More about our weather records

Advertising

Oakland Weather History for the Previous 24 Hours

Scroll right to see more
 ConditionsComfort  
Time TempWeatherWind HumidityBarometerVisibility
10:53 am
Fri, Jan 20
54 °FPassing clouds.12 mph83%29.37 "Hg10 mi
9:53 am51 °FCloudy.14 mph89%29.37 "Hg10 mi
8:53 am53 °FMostly cloudy.8 mph93%29.36 "Hg10 mi
7:53 am51 °FCloudy.8 mph92%29.35 "Hg10 mi
7:36 am51 °FLight rain. Cloudy.13 mph92%29.35 "Hg10 mi
6:53 am51 °FLight rain. Mostly cloudy.16 mph89%29.34 "Hg10 mi
5:53 am50 °FOvercast.9 mph86%29.34 "Hg10 mi
4:53 am48 °FPassing clouds.10 mph89%29.38 "Hg7 mi
4:27 am52 °FStrong thunderstorms. Fog.15 mph88%29.42 "Hg2 mi
3:53 am50 °FHeavy rain. Fog.28 mph86%29.35 "Hg5 mi
2:53 am50 °FLight rain. Mostly cloudy.28 mph86%29.43 "Hg10 mi
1:53 am51 °FLight rain. Fog.24 mph86%29.52 "Hg6 mi
12:53 am51 °FRain. Mostly cloudy.18 mph86%29.59 "Hg8 mi
11:53 pm
Thu, Jan 19
52 °FLight rain. Overcast.21 mph83%29.64 "Hg10 mi
10:53 pm52 °FLight rain. Mostly cloudy.16 mph83%29.70 "Hg10 mi
9:53 pm53 °FMostly cloudy.15 mph77%29.74 "Hg10 mi
8:53 pm53 °FMostly cloudy.13 mph77%29.77 "Hg10 mi
7:53 pm53 °FMostly cloudy.10 mph80%29.78 "Hg10 mi
6:53 pm53 °FOvercast.10 mph83%29.80 "Hg10 mi
5:53 pm53 °FOvercast.7 mph83%29.82 "Hg10 mi
4:53 pm54 °FBroken clouds.7 mph80%29.84 "Hg10 mi
3:53 pm55 °FBroken clouds.13 mph77%29.84 "Hg10 mi
2:53 pm57 °FScattered clouds.10 mph72%29.83 "Hg10 mi
1:53 pm57 °FScattered clouds.8 mph72%29.83 "Hg10 mi
12:53 pm56 °FScattered clouds.7 mph75%29.85 "Hg10 mi
Weather by CustomWeather, © 2017

See weather overviewHow to use our weather pages